{"data":{"norad_id":45712,"intl_designator":"2020-035BH","name":"STARLINK-1434","alt_names":[],"object_type":"PAYLOAD","status":"ACTIVE","operator":null,"country":"US","launch_date":"2020-06-04","launch_site_code":"AFETR","launch_vehicle":null,"mission":null,"orbit_class":"UNKNOWN","rcs_meters":null,"size_class":null,"mass_kg":null,"dimensions":null,"purposes":["comms"],"wikipedia_slug":null,"has_3d_model":false,"image_url":null,"decayed_at":null,"tle_current":{"epoch":"2026-05-25T01:17:15.957888Z","epoch_age_seconds":63783,"freshness":"FRESH","line1":"1 45712U 20035BH  26145.05365692  .00033342  00000+0  10366-2 0  9995","line2":"2 45712  53.0526  24.4639 0003364  65.9038 294.2314 15.33047698331083","mean_motion":15.33047698,"eccentricity":0.0003364,"inclination_deg":53.0526,"raan_deg":24.4639,"arg_perigee_deg":65.9038,"mean_anomaly_deg":294.2314,"bstar":0.0010366,"rev_number":33108,"period_min":93.930541227035,"perigee_km":464.42290923559,"apogee_km":469.02813273971,"semimajor_km":6844.8625209876,"source":"CELESTRAK","updated_at":"2026-05-25T13:38:16.431991Z"}}}